Location: Unspecified
(48.8656°N, 0.0000°E)
Time: 13:10:54
(UTC+00:00)

Altair - Pass Details

Date: 19 June 2019
Orbit: 1501 x 1683 km, 47.2° (Epoch: 19 August)

Event Time Altitude Azimuth Distance (km) Brightness Sun altitude
Rises 00:13:55 0° 274° (W) 4,808 10.1 -17.7°
Reaches altitude 10° 00:16:59 10° 273° (W) 3,846 9.6 -17.6°
Maximum altitude 00:26:52 80° 189° (S) 1,683 7.5 -17.5°
Drops below altitude 10° 00:37:01 10° 104° (ESE) 3,942 9.6 -17.3°
Sets 00:40:12 0° 104° (ESE) 4,933 10.1 -17.2°
